| time (UTC) | temp C | wind direction | speed KPH | gust KPH | rain 1hr cm | rain 24hr cm | rain mn cm | humidity % | barometer mb |
| 20260506134527 | 13 | 168 | 4.8 | 11.3 | 0.28 | 0.84 | 0.56 | 91 | 1006.3 |
| 20260506133025 | 13 | 146 | 0.0 | 8.0 | 0.30 | 0.79 | 0.51 | 91 | 1006.7 |
| 20260506131524 | 13 | 146 | 1.6 | 8.0 | 0.33 | 0.71 | 0.46 | 91 | 1007.0 |
| 20260506130027 | 13 | 155 | 4.8 | 16.1 | 0.28 | 0.66 | 0.38 | 91 | 1007.2 |
| 20260506124523 | 13 | 157 | 4.8 | 12.9 | 0.18 | 0.56 | 0.28 | 91 | 1007.5 |
| 20260506123022 | 13 | 162 | 4.8 | 11.3 | 0.10 | 0.48 | 0.20 | 91 | 1007.0 |
| 20260506121520 | 12 | 276 | 0.0 | 1.6 | 0.05 | 0.41 | 0.13 | 91 | 1006.9 |
| 20260506120027 | 12 | 276 | 0.0 | 0.0 | 0.03 | 0.38 | 0.10 | 90 | 1006.9 |
| 20260506114521 | 12 | 276 | 0.0 | 3.2 | 0.03 | 0.38 | 0.10 | 90 | 1007.2 |
| 20260506113019 | 12 | 276 | 0.0 | 3.2 | 0.03 | 0.38 | 0.10 | 90 | 1007.3 |
| 20260506111521 | 12 | 276 | 0.0 | 3.2 | 0.03 | 0.36 | 0.08 | 90 | 1007.1 |
| 20260506110018 | 12 | 276 | 0.0 | 1.6 | 0.05 | 0.36 | 0.08 | 89 | 1007.2 |
| 20260506104517 | 12 | 276 | 0.0 | 1.6 | 0.05 | 0.36 | 0.08 | 90 | 1007.2 |
| 20260506103021 | 12 | 276 | 0.0 | 3.2 | 0.05 | 0.36 | 0.08 | 89 | 1007.2 |
| 20260506101517 | 12 | 276 | 0.0 | 3.2 | 0.03 | 0.33 | 0.05 | 89 | 1007.0 |
| 20260506100015 | 12 | 276 | 0.0 | 0.0 | 0.00 | 0.30 | 0.03 | 89 | 1006.8 |
| 20260506094515 | 12 | 276 | 0.0 | 1.6 | 0.00 | 0.30 | 0.03 | 89 | 1006.9 |
| 20260506093018 | 12 | 276 | 0.0 | 1.6 | 0.03 | 0.30 | 0.03 | 88 | 1006.8 |
| 20260506091515 | 12 | 276 | 0.0 | 1.6 | 0.03 | 0.30 | 0.03 | 88 | 1007.0 |
| 20260506084513 | 12 | 276 | 0.0 | 3.2 | 0.03 | 0.30 | 0.03 | 88 | 1007.5 |
| 20260506083009 | 12 | 276 | 1.6 | 3.2 | 0.00 | 0.28 | 0.00 | 88 | 1007.6 |
| 20260506081509 | 12 | 276 | 1.6 | 4.8 | 0.00 | 0.28 | 0.00 | 88 | 1007.6 |
| 20260506073009 | 12 | 276 | 0.0 | 1.6 | 0.00 | 0.28 | 0.00 | 88 | 1007.3 |
| 20260506071507 | 12 | 276 | 0.0 | 1.6 | 0.00 | 0.28 | 0.00 | 87 | 1007.2 |
| 20260506061604 | 12 | 276 | 0.0 | 3.2 | 0.00 | 0.28 | 0.00 | 86 | 1007.9 |
| 20260506044547 | 13 | 276 | 0.0 | 3.2 | 0.00 | 0.28 | 0.00 | 84 | 1009.1 |
| 20260506043051 | 13 | 276 | 0.0 | 0.0 | 0.00 | 0.28 | 0.00 | 83 | 1009.0 |
| 20260506041557 | 13 | 276 | 0.0 | 1.6 | 0.00 | 0.28 | 0.00 | 82 | 1009.0 |
| 20260506040043 | 13 | 276 | 0.0 | 3.2 | 0.00 | 0.28 | 0.00 | 82 | 1009.2 |
| 20260506034541 | 13 | 276 | 0.0 | 3.2 | 0.00 | 0.28 | 0.28 | 83 | 1009.5 |
| 20260506033042 | 13 | 276 | 0.0 | 4.8 | 0.00 | 0.28 | 0.28 | 82 | 1009.7 |
| 20260506031542 | 13 | 276 | 0.0 | 4.8 | 0.00 | 0.28 | 0.28 | 83 | 1009.5 |
| 20260506030038 | 14 | 276 | 1.6 | 9.7 | 0.00 | 0.28 | 0.28 | 85 | 1009.3 |
| 20260506024536 | 15 | 345 | 3.2 | 9.7 | 0.00 | 0.28 | 0.28 | 87 | 1009.4 |
| 20260506023047 | 15 | 294 | 1.6 | 6.4 | 0.00 | 0.28 | 0.28 | 88 | 1009.2 |
| 20260506021533 | 15 | 294 | 0.0 | 4.8 | 0.00 | 0.28 | 0.28 | 88 | 1008.9 |
| 20260506020105 | 16 | 294 | 1.6 | 3.2 | 0.00 | 0.28 | 0.28 | 88 | 1008.7 |
| 20260506014631 | 16 | 294 | 0.0 | 3.2 | 0.00 | 0.28 | 0.28 | 88 | 1008.6 |
| 20260506013030 | 16 | 294 | 0.0 | 1.6 | 0.00 | 0.28 | 0.28 | 88 | 1008.5 |
| 20260506011530 | 16 | 294 | 1.6 | 6.4 | 0.00 | 0.28 | 0.28 | 87 | 1008.0 |
| 20260506010030 | 16 | 294 | 1.6 | 4.8 | 0.00 | 0.28 | 0.28 | 86 | 1007.9 |
| 20260506004527 | 16 | 294 | 0.0 | 1.6 | 0.00 | 0.28 | 0.28 | 86 | 1007.8 |
| 20260506003027 | 17 | 294 | 0.0 | 4.8 | 0.00 | 0.28 | 0.28 | 86 | 1007.4 |
| 20260506001526 | 17 | 294 | 0.0 | 0.0 | 0.00 | 0.28 | 0.28 | 86 | 1007.4 |
| 20260506000042 | 17 | 294 | 0.0 | 3.2 | 0.00 | 0.28 | 0.28 | 86 | 1007.1 |
| 20260505234525 | 17 | 294 | 0.0 | 1.6 | 0.00 | 0.28 | 0.28 | 86 | 1007.3 |
| 20260505233027 | 18 | 294 | 0.0 | 3.2 | 0.00 | 0.28 | 0.28 | 85 | 1007.1 |
| 20260505231529 | 18 | 294 | 0.0 | 3.2 | 0.00 | 0.28 | 0.28 | 85 | 1007.1 |
| 20260505230038 | 18 | 294 | 0.0 | 1.6 | 0.00 | 0.28 | 0.28 | 85 | 1007.0 |
| 20260505224524 | 18 | 294 | 0.0 | 3.2 | 0.00 | 0.28 | 0.28 | 84 | 1007.0 |
| 20260505223021 | 18 | 294 | 0.0 | 4.8 | 0.00 | 0.28 | 0.28 | 83 | 1007.0 |
| 20260505221521 | 18 | 294 | 1.6 | 4.8 | 0.00 | 0.28 | 0.28 | 81 | 1006.9 |
| 20260505220020 | 19 | 294 | 3.2 | 6.4 | 0.00 | 0.28 | 0.28 | 78 | 1007.0 |
| 20260505214521 | 19 | 294 | 0.0 | 4.8 | 0.00 | 0.28 | 0.28 | 77 | 1006.5 |
| 20260505213021 | 19 | 294 | 1.6 | 4.8 | 0.00 | 0.28 | 0.28 | 77 | 1006.3 |
| 20260505211528 | 18 | 294 | 1.6 | 6.4 | 0.00 | 0.28 | 0.28 | 80 | 1006.3 |
| 20260505210017 | 18 | 294 | 1.6 | 4.8 | 0.00 | 0.28 | 0.28 | 83 | 1006.4 |
| 20260505204515 | 18 | 294 | 3.2 | 6.4 | 0.28 | 0.28 | 0.28 | 81 | 1006.5 |
| 20260505203017 | 18 | 294 | 1.6 | 6.4 | 0.28 | 0.28 | 0.28 | 79 | 1006.8 |
| 20260505201513 | 18 | 294 | 0.0 | 6.4 | 0.28 | 0.28 | 0.28 | 76 | 1006.8 |
| 20260505200012 | 18 | 294 | 1.6 | 14.5 | 0.28 | 0.28 | 0.28 | 72 | 1006.6 |
| 20260505194510 | 23 | 269 | 17.7 | 35.4 | 0.00 | 0.00 | 0.00 | 43 | 1006.7 |
| 20260505193011 | 24 | 178 | 11.3 | 30.6 | 0.00 | 0.00 | 0.00 | 41 | 1004.9 |
| 20260505191512 | 25 | 155 | 19.3 | 35.4 | 0.00 | 0.00 | 0.00 | 39 | 1004.7 |
| 20260505190006 | 26 | 192 | 16.1 | 38.6 | 0.00 | 0.00 | 0.00 | 36 | 1004.6 |
| 20260505184504 | 25 | 157 | 17.7 | 37.0 | 0.00 | 0.00 | 0.00 | 38 | 1004.8 |
| 20260505183100 | 25 | 171 | 17.7 | 53.1 | 0.00 | 0.00 | 0.00 | 40 | 1005.5 |
| 20260505181641 | 25 | 161 | 27.4 | 43.5 | 0.00 | 0.00 | 0.00 | 42 | 1005.7 |
| 20260505180104 | 24 | 203 | 9.7 | 19.3 | 0.00 | 0.00 | 0.00 | 48 | 1006.0 |
| 20260505174554 | 24 | 161 | 12.9 | 25.7 | 0.00 | 0.00 | 0.00 | 45 | 1006.1 |
| 20260505173054 | 23 | 158 | 14.5 | 25.7 | 0.00 | 0.00 | 0.00 | 46 | 1006.4 |
| 20260505171600 | 23 | 194 | 9.7 | 32.2 | 0.00 | 0.00 | 0.00 | 45 | 1006.3 |
| 20260505170052 | 24 | 209 | 19.3 | 37.0 | 0.00 | 0.00 | 0.00 | 46 | 1006.1 |
| 20260505164549 | 24 | 113 | 17.7 | 41.8 | 0.00 | 0.00 | 0.00 | 46 | 1006.1 |
| 20260505163048 | 23 | 171 | 16.1 | 29.0 | 0.00 | 0.00 | 0.00 | 46 | 1006.3 |
| 20260505161548 | 24 | 162 | 12.9 | 35.4 | 0.00 | 0.00 | 0.00 | 48 | 1006.6 |
| 20260505153045 | 23 | 157 | 17.7 | 30.6 | 0.00 | 0.00 | 0.00 | 46 | 1006.7 |
| 20260505151541 | 23 | 155 | 16.1 | 30.6 | 0.00 | 0.00 | 0.00 | 45 | 1006.7 |